Location: Bratislava
(0.0000°N, 17.1167°E)
Time: 04:45:50
(UTC+01:00)

Aureole 3 Rocket - Pass Details

Date: 24 January 2021
Orbit: 398 x 1740 km, 82.5° (Epoch: 06 March)

Event Time Altitude Azimuth Distance (km) Brightness Sun altitude
Rises 18:49:42 0° 7° (N) 2,761 6.1 -10.9°
Reaches altitude 10° 18:51:38 10° 13° (NNE) 2,000 5.4 -11.3°
Maximum altitude 18:55:56 52° 90° (E) 962 3.7 -12.3°
Drops below altitude 10° 19:01:58 10° 164° (SSE) 2,796 6.5 -13.7°
Sets 19:05:04 0° 169° (SSE) 3,984 7.3 -14.5°
